TimeEST,TemperatureF,Dew PointF,Humidity,Sea Level PressureIn,VisibilityMPH,Wind Direction,Wind SpeedMPH,Gust SpeedMPH,PrecipitationIn,Events,Conditions,WindDirDegrees,DateUTC
12:52 AM,32.0,21.9,66,29.84,10.0,West,5.8,-,N/A,,Clear,280,2013-02-13 05:52:00
1:52 AM,33.1,21.0,61,29.84,10.0,SW,3.5,-,N/A,,Clear,230,2013-02-13 06:52:00
2:52 AM,32.0,19.9,61,29.86,10.0,WSW,5.8,-,N/A,,Clear,240,2013-02-13 07:52:00
3:52 AM,32.0,19.0,59,29.86,10.0,West,6.9,-,N/A,,Clear,260,2013-02-13 08:52:00
4:52 AM,27.0,19.0,72,29.87,10.0,Calm,Calm,-,N/A,,Scattered Clouds,0,2013-02-13 09:52:00
5:52 AM,24.1,19.0,81,29.87,10.0,Calm,Calm,-,N/A,,Clear,0,2013-02-13 10:52:00
6:52 AM,21.9,18.0,85,29.87,10.0,Calm,Calm,-,N/A,,Clear,0,2013-02-13 11:52:00
7:52 AM,26.1,21.0,81,29.86,10.0,Calm,Calm,-,N/A,,Clear,0,2013-02-13 12:52:00
8:52 AM,35.1,19.9,54,29.88,10.0,WSW,6.9,-,N/A,,Clear,250,2013-02-13 13:52:00
9:52 AM,37.9,21.0,51,29.86,10.0,Variable,4.6,-,N/A,,Clear,0,2013-02-13 14:52:00
10:52 AM,39.9,21.9,49,29.84,10.0,NNW,5.8,-,N/A,,Clear,340,2013-02-13 15:52:00
11:52 AM,39.9,21.0,47,29.83,10.0,WSW,4.6,-,N/A,,Clear,250,2013-02-13 16:52:00
12:52 PM,41.0,21.0,45,29.82,10.0,SSW,9.2,17.3,N/A,,Clear,210,2013-02-13 17:52:00
1:52 PM,41.0,21.9,47,29.80,10.0,South,5.8,-,N/A,,Clear,190,2013-02-13 18:52:00
2:52 PM,41.0,23.0,49,29.78,10.0,Variable,6.9,-,N/A,,Clear,0,2013-02-13 19:52:00
3:52 PM,42.1,23.0,47,29.75,10.0,WSW,3.5,-,N/A,,Clear,250,2013-02-13 20:52:00
4:52 PM,39.9,23.0,51,29.75,10.0,SSW,4.6,-,N/A,,Clear,200,2013-02-13 21:52:00
5:52 PM,33.1,24.1,70,29.75,10.0,Calm,Calm,-,N/A,,Clear,0,2013-02-13 22:52:00
6:52 PM,33.1,24.1,70,29.75,10.0,Variable,3.5,-,N/A,,Clear,0,2013-02-13 23:52:00
7:52 PM,30.0,24.1,79,29.74,10.0,South,3.5,-,N/A,,Clear,190,2013-02-14 00:52:00
8:52 PM,30.9,25.0,79,29.73,10.0,South,3.5,-,N/A,,Clear,170,2013-02-14 01:52:00
9:52 PM,30.0,24.1,79,29.72,10.0,Calm,Calm,-,N/A,,Clear,0,2013-02-14 02:52:00
10:52 PM,30.0,24.1,79,29.69,10.0,North,3.5,-,N/A,,Mostly Cloudy,10,2013-02-14 03:52:00
11:52 PM,30.9,25.0,79,29.71,10.0,Calm,Calm,-,N/A,,Overcast,0,2013-02-14 04:52:00